Home > Weather > Pasadena > Past weeks

Flag for U.S.A. Weather for the Past 2 Weeks in Pasadena, California, U.S.A.

Now
51 °F

Sunny.


Feels Like: 51 °F
Forecast: 56 / 82 °F
Wind: No wind

Location: Bob Hope Airport

Current Time: Feb 13, 2016 at 7:34:41 AM

Latest Report: Feb 13, 2016 at 6:53 AM


Visibility: 10 mi

Pressure: 30.08 "Hg

Humidity: 54%

Dew point: 35 °F

Location of PasadenaLocation

Historic Weather in Pasadena — Graph

°F

Pasadena Temperature Yesterday

Maximum temperature yesterday: 85 °F (at 2:53 PM)
Minimum temperature yesterday: 51 °F (at 6:53 AM)
Average temperature yesterday: 67 °F

High & Low Weather Summary for the Past Weeks

 TemperatureHumidityPressure
High87 °F (Feb 9, 2:53 PM)94% (Jan 31, 7:59 AM)30.34 "Hg (Jan 31, 7:59 AM)
Low39 °F (Feb 2, 5:53 AM)7% (Feb 7, 2:53 PM)29.54 "Hg (Jan 31, 1:53 PM)
Average60 °F39%30.09 "Hg
* Reported Jan 29 5:53 AM — Feb 13 5:53 AM, Pasadena, Weather by CustomWeather, © 2016

Note: Actual official high and low records may vary slightly from our data, if they occured in-between our weather recording intervals... More about our weather records

Advertising

Pasadena Weather History for the Previous 24 Hours

 ConditionsComfort  
Time TempWeatherWind HumidityBarometerVisibility
5:53 AM
Sat, Feb 13
52 °FClear.No wind50%30.06 "Hg10 mi
4:53 AM52 °FClear.3 mph55%30.05 "Hg10 mi
3:53 AM53 °FClear.No wind52%30.04 "Hg10 mi
2:53 AM54 °FClear.No wind51%30.04 "Hg10 mi
1:53 AM57 °FClear.No wind46%30.04 "Hg10 mi
12:53 AM59 °FClear.No wind41%30.05 "Hg10 mi
11:53 PM
Fri, Feb 12
60 °FClear.3 mph47%30.06 "Hg10 mi
10:53 PM63 °FClear.3 mph45%30.05 "Hg10 mi
9:53 PM64 °FClear.No wind34%30.04 "Hg10 mi
8:53 PM67 °FClear.No wind31%30.04 "Hg10 mi
7:53 PM69 °FClear.No wind32%30.03 "Hg10 mi
6:53 PM72 °FClear.No wind28%30.03 "Hg10 mi
5:53 PM75 °FClear.6 mph23%30.01 "Hg10 mi
4:53 PM80 °FSunny.6 mph17%30.00 "Hg10 mi
3:53 PM83 °FSunny.6 mph16%29.99 "Hg10 mi
2:53 PM85 °FSunny.5 mph13%29.99 "Hg10 mi
1:53 PM84 °FSunny.No wind13%30.00 "Hg10 mi
12:53 PM82 °FSunny.No wind15%30.03 "Hg10 mi
11:53 AM80 °FSunny.No wind15%30.06 "Hg10 mi
10:53 AM77 °FSunny.No wind22%30.09 "Hg10 mi
9:53 AM70 °FSunny.No wind30%30.09 "Hg10 mi
8:53 AM64 °FSunny.No wind38%30.09 "Hg10 mi
7:53 AM57 °FSunny.No wind47%30.09 "Hg10 mi
Weather by CustomWeather, © 2016

See weather overviewHow to use our weather pages